Location: College Rock
(37.2713°N, 119.1740°W)
Time: 13:42:38
(UTC+00:00)

Cosmos 2082 Rocket - Pass Details

Date: 29 October 2020
Orbit: 833 x 854 km, 71.0° (Epoch: 01 December)

Event Time Altitude Azimuth Distance (km) Brightness Sun altitude
Exits shadow 12:09:33 57° 200° (SSW) 974 2.3 -26.2°
Maximum altitude 12:10:46 89° 121° (ESE) 838 2.0 -26.0°
Drops below altitude 10° 12:16:23 10° 22° (NNE) 2,449 4.9 -24.9°
Sets 12:18:50 0° 23° (NNE) 3,389 5.6 -24.4°
